Regional Weather Roundup
Issued by NWS

Home | Current Version | Previous Version | Text Only | Print | Product List | Glossary Off
Versions: 1 2 3 4 5 6 7 8 9 10 11 12 13 14 15 16 17 18 19 20 21 22 23 24 25 26 27 28 29 30 31 32 33 34 35 36 37 38 39 40 41 42 43 44 45 46 47 48 49 50

000
ASUS43 KMKX 281200
RWRWI

WISCONSIN REGIONAL WEATHER ROUNDUP
NATIONAL WEATHER SERVICE MILWAUKEE/SULLIVAN WI
700 AM CDT WED SEP 28 2016

NOTE: "FAIR" INDICATES FEW OR NO CLOUDS BELOW 12,000 FEET WITH NO
SIGNIFICANT WEATHER AND/OR OBSTRUCTIONS TO VISIBILITY.

WIZ001-002-006>008-014>016-023>028-281300-
NORTHWEST WISCONSIN

CITY           SKY/WX    TMP DP  RH WIND       PRES   REMARKS
SUPERIOR ARPT  CLOUDY    53  48  82 N9        30.05R
ASHLAND        CLOUDY    53  50  89 NE14      30.03R
6HR MIN TEMP:  52; 6HR MAX TEMP:  53; 6HR PCP:  0.03;

HAYWARD        CLOUDY    52  49  89 N13G21    30.01R
6HR MIN TEMP:  49; 6HR MAX TEMP:  53; 6HR PCP: TRACE;

SIREN          CLOUDY    51  48  90 N9        30.03R
CUMBERLAND     CLOUDY    50  46  87 N13       29.99R
RICE LAKE      CLOUDY    51  48  90 NW10      30.00R
CHETEK         NOT AVBL
LADYSMITH      MOCLDY    52  50  92 N9        29.97R
EAU CLAIRE     NOT AVBL
MENOMONIE      CLOUDY    51  51 100 NW9G16    29.97R
NEW RICHMOND   CLOUDY    50  49  96 N10       30.02R
OSCEOLA        CLOUDY    51  51 100 NW10      30.05R
$$

WIZ003>005-009-010-017-018-281300-
NORTH CENTRAL WISCONSIN

CITY           SKY/WX    TMP DP  RH WIND       PRES   REMARKS
MANITOWISH WTR NOT AVBL
ARBOR VITAE    CLOUDY    52  50  94 NE8G18    29.93R
WOODRUFF       CLOUDY    52  50  94 NE8G18    29.93R
RHINELANDER    LGT RAIN  51  51 100 N5        29.93R FOG
6HR MIN TEMP:  49; 6HR MAX TEMP:  51; 6HR PCP:  0.01;

EAGLE RIVER    CLOUDY    50  50  99 N10G16    29.92R
LAND O LAKES   CLOUDY    51  50  97 N14       29.95R
PHILLIPS       CLOUDY    50  49  95 NE9G20    29.92R
TOMAHAWK       CLOUDY    49  48  95 CALM      29.91R
MEDFORD        CLOUDY    49  49 100 N6        29.91R
MERRILL        CLOUDY    51  49  94 NE5       29.91R
$$

WIZ029-030-035-036-043>047-281300-
CENTRAL WISCONSIN

CITY           SKY/WX    TMP DP  RH WIND       PRES   REMARKS
WAUSAU         CLOUDY    51  48  89 N5        29.89R
6HR MIN TEMP:  49; 6HR MAX TEMP:  51;

MOSINEE        NOT AVBL
MARSHFIELD     CLOUDY    52  48  86 N8        29.90R
6HR MIN TEMP:  49; 6HR MAX TEMP:  52;

STEVENS POINT  MOCLDY    47  47 100 N3        29.89R
WAUPACA        CLOUDY    52  51  96 N5        29.88R
WAUTOMA        CLOUDY    51  49  92 NW5       29.89R
6HR MIN TEMP:  48; 6HR MAX TEMP:  51;

WISC RAPIDS    CLOUDY    51  50  96 N7        29.91R
6HR MIN TEMP:  49; 6HR MAX TEMP:  51; 6HR PCP: TRACE;

CAMP DOUGLAS   NOT AVBL
$$

WIZ011>013-019>022-031-037>040-048>050-281300-
NORTHEAST WISCONSIN

CITY           SKY/WX    TMP DP  RH WIND       PRES   REMARKS
ANTIGO         CLOUDY    49  49  99 CALM      29.90R
SHAWANO        CLOUDY    53  50  89 N7        29.88R
OCONTO         NOT AVBL
STURGEON BAY   CLOUDY    53  51  93 N7        29.86R
6HR MIN TEMP:  49; 6HR MAX TEMP:  53; 6HR PCP:  0.11;

GREEN BAY      PTCLDY    49  49 100 N6        29.87R
6HR MIN TEMP:  49; 6HR MAX TEMP:  50; 6HR PCP: TRACE;

MANITOWOC      NOT AVBL
APPLETON       MOCLDY    50  50 100 N6        29.85R
CLINTONVILLE   NOT AVBL
OSHKOSH        CLOUDY    51  48  89 N8        29.86R
6HR MIN TEMP:  50; 6HR MAX TEMP:  51;

$$

WIZ032>034-041-042-053>061-281300-
SOUTHWEST WISCONSIN

CITY           SKY/WX    TMP DP  RH WIND       PRES   REMARKS
LA CROSSE      CLOUDY    53  50  89 N13       29.93R
6HR MIN TEMP:  52; 6HR MAX TEMP:  53; 6HR PCP: TRACE;

SPARTA         LGT RAIN  49  49 100 NW6       29.92R
VIROQUA        CLOUDY    48  48 100 NW7       29.91R
BOSCOBEL       LGT RAIN  51  48  89 NW7       29.92R
6HR MIN TEMP:  51; 6HR MAX TEMP:  52; 6HR PCP:  0.01;

PRAIRIE DU CHI CLOUDY    50  46  87 NW8       29.92R
PLATTEVILLE    CLOUDY    49  49  97 N9        29.90R
$$

WIZ056-057-062-063-064-067-068-281300-
SOUTH CENTRAL WISCONSIN

CITY           SKY/WX    TMP DP  RH WIND       PRES   REMARKS
REEDSBURG      NOT AVBL
BARABOO/DELLS  DRIZZLE   48  47  95 NW5       29.87R
LONE ROCK      NOT AVBL
MINERAL POINT  CLOUDY    50  48  93 NW9       29.89R
MADISON        CLOUDY    49  48  97 NW8       29.87R
6HR MIN TEMP:  48; 6HR MAX TEMP:  49; 6HR PCP: TRACE;

MIDDLETON      CLOUDY    50  50 100 NW8       29.87R
WATERTOWN      CLOUDY    49  49 100 NW6       29.84R
MONROE         CLOUDY    46  46 100 NW8       29.86R
JANESVILLE     CLOUDY    52  50  93 SW7       29.85R
$$

WIZ051-052-058>065-066-070>072-281300-
SOUTHEAST WISCONSIN

CITY           SKY/WX    TMP DP  RH WIND       PRES   REMARKS
MILWAUKEE      CLOUDY    52  49  89 NW7       29.84R
6HR MIN TEMP:  50; 6HR MAX TEMP:  52; 6HR PCP:  0.03;

WAUKESHA       LGT RAIN  48  46  93 NW6       29.85R
MILWAUKEE/TIMM MOCLDY    48  45  87 NW5       29.84R
RACINE         CLOUDY    50  48  93 N3        29.85R
6HR MIN TEMP:  50; 6HR MAX TEMP:  51; 6HR PCP:  0.01;

BURLINGTON     CLOUDY    48  47  97 N5        29.83R
KENOSHA        CLOUDY    50  47  89 N5        29.84R
6HR MIN TEMP:  49; 6HR MAX TEMP:  51; 6HR PCP: TRACE;

FOND DU LAC    CLOUDY    51  49  92 NW9       29.86R
6HR MIN TEMP:  49; 6HR MAX TEMP:  51; 6HR PCP: TRACE;

SHEBOYGAN      CLOUDY    48  46  93 NW6       29.85R
6HR MIN TEMP:  48; 6HR MAX TEMP:  50; 6HR PCP: TRACE;

WEST BEND      CLOUDY    46  46 100 NW3       29.83R
JUNEAU         CLOUDY    48  47  96 NW6       29.86R
$$

LSZ147-162-281300-
LAKE SUPERIOR

STATION/POSITION TIME  TEMP    WIND        PRES    WAVE
                       AIR SEA DIR/SP/G            HT/PER
                 (UTC) (F)     (DEG/KT/KT) (MB)    (FT/S)
W MID LAKE BUOY  1050   55 52   30/ 21/ 27 1014.6R   5/ 7
DEVILS ISLAND    1100   53      20/ 20/ 22 1016.2R
SAXON HARBOR     1100   56      20/ 20/ 23 1014.9R
$$

LMZ867-665-643>646-281300-
LAKE MICHIGAN

STATION/POSITION TIME  TEMP    WIND        PRES    WAVE
                       AIR SEA DIR/SP/G            HT/PER
                 (UTC) (F)     (DEG/KT/KT) (MB)    (FT/S)
CHAMBERS ISLAND  1100   58      30/ 11/ 16 1010.2R
N MID LAKE BUOY  1050   56 66  140/ 14/ 16 1010.3R   2/ 5
NORTHPORT PIER   1100   56      50/  4/  5 1010.5R
SISTER BAY       1038   54      40/  4/  7   N/A
KEWAUNEE LAKESHO 1100   50     320/  4/  7 1009.4R
SHEBOYGAN LAKESH 1100   51     320/  7/  8 1009.8R
PORT WASHINGTON  1140   51     300/  4/  5 1011.2R
ATWATER BUOY     1100   52 54  320/  8/ 10 1009.6R
MILWAUKEE LAKESH 1110   51     330/  7/  8   N/A
S MID LAKE BUOY  1050   55 69   50/  4/  6 1008.9R   1/ 4
KENOSHA   LAKESH 1100   49     310/  4/  7 1009.8R
$$

TC  - TEMPERATURE IN CELSIUS
VSB - VISIBILITY IN STATUTE MILES
WCI - WIND CHILL INDEX
HX  - HEAT INDEX





USA.gov is the U.S. government's official web portal to all federal, state and local government web resources and services.